TimeEDT,TemperatureF,Dew PointF,Humidity,Sea Level PressureIn,VisibilityMPH,Wind Direction,Wind SpeedMPH,Gust SpeedMPH,PrecipitationIn,Events,Conditions,WindDirDegrees,DateUTC
12:14 AM,65.7,65.8,100,29.98,3.0,SW,4.6,-,0.12,Rain,Heavy Rain,220,2013-06-26 04:14:00
12:33 AM,65.5,65.7,100,29.94,10.0,SE,5.8,-,0.13,Rain,Light Rain,140,2013-06-26 04:33:00
12:53 AM,65.7,65.8,100,29.93,10.0,Calm,Calm,-,0.13,Rain,Light Rain,0,2013-06-26 04:53:00
1:14 AM,66.2,66.4,100,29.96,5.0,West,4.6,-,0.09,Rain,Rain,260,2013-06-26 05:14:00
1:33 AM,66.0,66.2,100,29.92,5.0,Calm,Calm,-,0.15,Rain,Light Rain,0,2013-06-26 05:33:00
1:53 AM,65.8,66.2,100,29.93,5.0,Calm,Calm,-,0.16,Rain,Light Rain,0,2013-06-26 05:53:00
2:14 AM,65.8,66.2,100,29.92,5.0,SE,3.5,-,0.02,Rain,Light Rain,130,2013-06-26 06:14:00
2:33 AM,65.8,66.2,100,29.92,7.0,Calm,Calm,-,0.02,Rain,Light Rain,0,2013-06-26 06:33:00
2:53 AM,65.8,66.2,100,29.92,5.0,Calm,Calm,-,0.02,,Mostly Cloudy,0,2013-06-26 06:53:00
3:14 AM,66.2,66.2,100,29.95,10.0,South,6.9,-,N/A,,Overcast,190,2013-06-26 07:14:00
3:33 AM,66.2,66.4,100,29.93,10.0,SSE,4.6,-,N/A,Rain,Light Rain,160,2013-06-26 07:33:00
3:54 AM,66.4,66.6,100,29.93,10.0,South,3.5,-,0.01,Rain,Light Rain,170,2013-06-26 07:54:00
4:14 AM,66.4,66.6,100,29.93,10.0,SSW,6.9,-,0.01,Rain,Light Rain,200,2013-06-26 08:14:00
4:33 AM,66.6,66.7,100,29.93,4.0,Calm,Calm,-,0.11,Rain,Heavy Rain,0,2013-06-26 08:33:00
4:53 AM,66.4,66.6,100,29.91,5.0,SE,4.6,-,0.16,Rain,Light Rain,130,2013-06-26 08:53:00
5:14 AM,66.2,66.4,100,29.90,7.0,SSE,4.6,-,0.01,Rain,Light Rain,160,2013-06-26 09:14:00
5:33 AM,66.2,66.4,100,29.89,7.0,South,3.5,-,0.01,,Light Drizzle,170,2013-06-26 09:33:00
5:53 AM,66.2,66.2,100,29.89,7.0,SSE,3.5,-,0.01,,Scattered Clouds,150,2013-06-26 09:53:00
6:14 AM,66.0,66.2,100,29.88,10.0,Calm,Calm,-,N/A,,Clear,0,2013-06-26 10:14:00
6:33 AM,66.2,66.4,100,29.88,10.0,Calm,Calm,-,N/A,,Scattered Clouds,0,2013-06-26 10:33:00
6:54 AM,66.2,66.2,100,29.88,10.0,Calm,Calm,-,N/A,,Clear,0,2013-06-26 10:54:00
7:13 AM,66.0,66.2,100,29.88,10.0,SSW,3.5,-,N/A,,Scattered Clouds,210,2013-06-26 11:13:00
7:33 AM,66.4,66.6,100,29.89,7.0,SW,4.6,-,N/A,,Scattered Clouds,230,2013-06-26 11:33:00
7:54 AM,66.6,66.7,100,29.91,10.0,WSW,5.8,-,N/A,,Mostly Cloudy,240,2013-06-26 11:54:00
8:14 AM,67.1,67.1,100,29.92,10.0,WSW,6.9,-,N/A,,Overcast,250,2013-06-26 12:14:00
8:33 AM,67.1,67.3,100,29.92,10.0,WSW,6.9,-,N/A,,Overcast,240,2013-06-26 12:33:00
8:53 AM,67.3,67.5,100,29.92,10.0,WSW,6.9,-,N/A,Rain,Rain,240,2013-06-26 12:53:00
9:14 AM,67.1,67.3,100,29.93,7.0,WSW,6.9,-,N/A,,Light Drizzle,250,2013-06-26 13:14:00
9:33 AM,67.1,67.3,100,29.93,10.0,Calm,Calm,-,N/A,,Overcast,0,2013-06-26 13:33:00
9:54 AM,67.6,67.8,100,29.92,10.0,Calm,Calm,-,N/A,,Overcast,0,2013-06-26 13:54:00
10:13 AM,69.1,69.1,100,29.91,10.0,Calm,Calm,-,N/A,,Overcast,0,2013-06-26 14:13:00
10:34 AM,70.2,70.0,99,29.91,10.0,WSW,3.5,-,N/A,,Scattered Clouds,240,2013-06-26 14:34:00
10:53 AM,70.9,70.2,98,29.91,10.0,WSW,3.5,-,N/A,,Clear,250,2013-06-26 14:53:00
11:14 AM,71.6,70.5,96,29.92,10.0,West,4.6,-,N/A,,Clear,260,2013-06-26 15:14:00
11:33 AM,73.0,69.8,90,29.92,10.0,West,4.6,-,N/A,,Clear,270,2013-06-26 15:33:00
11:54 AM,73.8,68.2,83,29.91,10.0,WSW,5.8,-,N/A,,Scattered Clouds,250,2013-06-26 15:54:00
12:14 PM,74.3,65.5,74,29.92,10.0,WSW,4.6,-,N/A,,Mostly Cloudy,250,2013-06-26 16:14:00
12:33 PM,74.5,66.0,75,29.92,10.0,West,4.6,-,N/A,,Overcast,280,2013-06-26 16:33:00
12:54 PM,75.0,66.0,73,29.92,10.0,WSW,4.6,-,N/A,,Overcast,240,2013-06-26 16:54:00
1:13 PM,75.9,65.8,71,29.92,10.0,WSW,3.5,-,N/A,,Overcast,240,2013-06-26 17:13:00
1:34 PM,76.8,65.3,67,29.92,10.0,SW,5.8,-,N/A,,Overcast,230,2013-06-26 17:34:00
1:53 PM,77.0,65.7,68,29.91,10.0,West,3.5,-,N/A,,Mostly Cloudy,270,2013-06-26 17:53:00
2:14 PM,77.5,65.1,65,29.90,10.0,WNW,3.5,-,N/A,,Scattered Clouds,290,2013-06-26 18:14:00
2:33 PM,79.5,66.4,64,29.90,10.0,WSW,5.8,-,N/A,,Scattered Clouds,250,2013-06-26 18:33:00
2:54 PM,78.1,65.5,65,29.89,10.0,WNW,4.6,-,0.01,,Mostly Cloudy,300,2013-06-26 18:54:00
3:13 PM,78.3,65.3,64,29.89,10.0,SW,3.5,-,N/A,,Overcast,230,2013-06-26 19:13:00
3:33 PM,79.3,65.8,63,29.88,10.0,Calm,Calm,-,N/A,,Overcast,0,2013-06-26 19:33:00
3:53 PM,78.3,64.9,63,29.88,10.0,Calm,Calm,-,N/A,,Overcast,0,2013-06-26 19:53:00
4:13 PM,79.0,66.9,66,29.88,10.0,Calm,Calm,-,N/A,,Overcast,0,2013-06-26 20:13:00
4:33 PM,79.7,67.6,66,29.87,10.0,South,3.5,-,N/A,,Overcast,190,2013-06-26 20:33:00
4:53 PM,80.1,68.4,67,29.87,10.0,South,3.5,-,N/A,,Mostly Cloudy,170,2013-06-26 20:53:00
5:14 PM,79.3,67.3,66,29.86,10.0,SSW,5.8,-,N/A,,Mostly Cloudy,210,2013-06-26 21:14:00
5:33 PM,78.3,67.3,69,29.85,10.0,Calm,Calm,-,N/A,,Mostly Cloudy,0,2013-06-26 21:33:00
5:54 PM,78.8,66.9,67,29.85,10.0,Calm,Calm,-,N/A,,Scattered Clouds,0,2013-06-26 21:54:00
6:13 PM,79.9,66.7,64,29.84,10.0,Calm,Calm,-,N/A,,Scattered Clouds,0,2013-06-26 22:13:00
6:33 PM,79.7,67.1,65,29.83,10.0,Calm,Calm,-,N/A,,Clear,0,2013-06-26 22:33:00
6:54 PM,79.7,67.3,66,29.83,10.0,Calm,Calm,-,N/A,,Clear,0,2013-06-26 22:54:00
7:14 PM,79.7,67.8,67,29.83,10.0,SW,3.5,-,N/A,,Clear,230,2013-06-26 23:14:00
7:33 PM,79.2,67.3,67,29.83,10.0,Calm,Calm,-,N/A,,Clear,0,2013-06-26 23:33:00
7:53 PM,78.6,68.0,70,29.84,10.0,Calm,Calm,-,N/A,,Scattered Clouds,0,2013-06-26 23:53:00
8:14 PM,77.4,68.7,75,29.84,10.0,Calm,Calm,-,N/A,,Clear,0,2013-06-27 00:14:00
8:33 PM,76.6,68.5,76,29.84,10.0,Calm,Calm,-,N/A,,Scattered Clouds,0,2013-06-27 00:33:00
8:54 PM,75.2,68.5,80,29.84,10.0,Calm,Calm,-,N/A,,Scattered Clouds,0,2013-06-27 00:54:00
9:13 PM,75.0,68.4,80,29.84,10.0,Calm,Calm,-,N/A,,Scattered Clouds,0,2013-06-27 01:13:00
9:34 PM,74.1,68.9,84,29.83,10.0,Calm,Calm,-,N/A,,Scattered Clouds,0,2013-06-27 01:34:00
9:53 PM,73.9,68.9,84,29.84,10.0,SSE,3.5,-,N/A,,Scattered Clouds,160,2013-06-27 01:53:00
10:13 PM,74.1,68.9,84,29.84,10.0,South,3.5,-,N/A,,Clear,180,2013-06-27 02:13:00
10:33 PM,74.3,68.5,82,29.84,10.0,Calm,Calm,-,N/A,,Clear,0,2013-06-27 02:33:00
10:54 PM,73.8,68.5,84,29.84,10.0,Calm,Calm,-,N/A,,Clear,0,2013-06-27 02:54:00
11:13 PM,73.8,68.2,83,29.83,10.0,Calm,Calm,-,N/A,,Mostly Cloudy,0,2013-06-27 03:13:00
11:34 PM,74.3,67.8,80,29.83,10.0,South,3.5,-,N/A,,Overcast,170,2013-06-27 03:34:00
11:53 PM,73.9,68.0,82,29.83,10.0,SW,3.5,-,N/A,,Mostly Cloudy,220,2013-06-27 03:53:00